Regional Weather Roundup
Issued by NWS Wakefield, VA

Home | Current Version | Previous Version | Graphics & Text | Print | Product List | Glossary On
Versions: 1 2 3 4 5 6 7 8 9 10 11 12 13 14 15 16 17 18 19 20 21 22 23 24 25 26 27 28 29 30 31 32 33 34 35 36 37 38 39 40 41 42 43 44 45 46 47 48 49 50
647
ASUS41 KAKQ 222015
RWRAKQ

REGIONAL WEATHER ROUNDUP
NATIONAL WEATHER SERVICE WAKEFIELD VA
300 PM EST THU FEB 22 2018

Note: "fair" indicates few or no clouds below 12,000 feet with no
significant weather and/or obstructions to visibility. * = Denotes
station may not report precipitation (e.g., rain,snow,etc.),
thunder or fog.

VAZ042-051-052>054-056-222100-
NORTHERN VIRGINIA

CITY           SKY/WX    TMP DP  RH WIND       PRES   REMARKS
WASH NATIONAL  CLOUDY    54  47  77 NE6       30.46R
DULLES         CLOUDY    46  43  89 N14       30.46S
FORT BELVOIR   CLOUDY    55  46  72 N3        30.45R
QUANTICO       CLOUDY    55  48  77 NE12      30.43R
FREDERICKSBRG* CLOUDY    54  54 100 NE7       30.40R
STAFFORD*      CLOUDY    56  51  84 NE7       30.46R
WARRENTON      CLOUDY    55  39  55 N7        30.43R
CULPEPER*      CLOUDY    55  42  60 N7        30.44R
MANASSAS*      CLOUDY    53  42  66 N15       30.45R
LEESBURG*      CLOUDY    45  45 100 NE10G16   30.48R FOG
WINCHESTER     CLOUDY    41  37  87 N6        30.50R FOG
FRONT ROYAL*   CLOUDY    45  39  81 N9        30.46R
LURAY*         CLOUDY    50  41  71 N13       30.43R
$$

VAZ048-049-060>072-079>083-222100-
CENTRAL AND SOUTH CENTRAL VIRGINIA

CITY           SKY/WX    TMP DP  RH WIND       PRES   REMARKS
RICHMOND       PTSUNNY   75  63  66 SW7       30.34F
CHESTERFIELD*  MOCLDY    75  63  66 VRB7        N/A
PETERSBURG*    FAIR      77  60  55 SW9G17    30.35F
HANOVER        CLOUDY    60  56  86 NE7       30.37F
TAPPAHANNOCK*  CLOUDY    53  53  99 NE7       30.40S FOG
QUINTON*       CLOUDY    73  64  71 SW3       30.34F
CHARLOTTSVILLE CLOUDY    55  47  74 N8        30.40R
GORDONSVILLE*  CLOUDY    53  46  78 NE7       30.40S
ORANGE*        CLOUDY    52  43  71 N7        30.41R
LOUISA*        CLOUDY    54  49  82 N8        30.44R
BUMPASS*       CLOUDY    55  53  95 NE5       30.38F
FARMVILLE*     CLOUDY    76  64  67 S10G20    30.33S
CREWE*         CLOUDY    75  65  71 SW7       30.34F
FORT PICKETT*  CLOUDY    74  62  65 S10G22    30.35F
CHASE CITY*    CLOUDY    74  63  68 S5        30.35F
CLARKSVILLE*   MOCLDY    75  61  60 S10G20    30.35F
SOUTH HILL*    PTSUNNY   73  63  70 S13G21    30.42F
LAWRENCEVILLE* MOCLDY    76  62  61 S10G17    30.36F
EMPORIA*       FAIR      77  59  53 S10G17    30.38F
$$

VAZ088>098-222100-
SOUTHEAST VIRGINIA

CITY           SKY/WX    TMP DP  RH WIND       PRES   REMARKS
NORFOLK        PTSUNNY   78  63  59 SW15G23   30.36F
VIRGINIA BEACH PTSUNNY   77  61  57 SW17G25   30.36F
NORFOLK NAVAL  MOSUNNY   76  62  62 SW12      30.38
WEST POINT*    CLOUDY    75  62  63 S5        30.37S
SALUDA*        CLOUDY    56  55  94 NE5       30.38S
NEWPORT NEWS   FAIR      76  62  62 SW14      30.36F
LANGLEY AFB    PTSUNNY   76  64  67 SW14      30.36F
FORT EUSTIS    PTSUNNY   75  63  66 S8        30.34F
WILLIAMSBURG*  FAIR      81  64  57 SW6       30.36F
HR EXEC AP*    NOT AVBL
FRANKLIN*      FAIR      76  63  63 SW12G17   30.38F
US460-WAKEFLD  FAIR      77  63  61 SW9       30.36F
$$

VAZ020-022-025-037-045-222100-
WEST CENTRAL AND SOUTHWEST VIRGINIA

CITY           SKY/WX    TMP DP  RH WIND       PRES   REMARKS
STAUNTON*      CLOUDY    51  45  78 N8        30.41R
WAYNESBORO*    CLOUDY    56  50  79 N9G16     30.37R
HOT SPRINGS VA FAIR      70  46  41 W22G30    30.40S
LYNCHBURG      FAIR      75  60  59 S18       30.32F
DANVILLE       CLOUDY    75  63  66 S9G17     30.35F
SOUTH BOSTON*  FAIR      76  60  56 S17G24    30.35F
MARTINSVILLE   FAIR      77  59  53 SW5       30.37S
ROANOKE        FAIR      84  56  38 W10G20    30.31F
BLACKSBURG     PTSUNNY   81  53  37 SW12G23   30.37S
DUBLIN*        CLOUDY    78  51  38 W17       30.36S
MARION*        PTSUNNY   77  49  37 W14G20    30.40F
HILLSVILLE*    FAIR      71  60  69 S7        30.39R
RICHLANDS*     CLOUDY    74  54  50 W5        30.40S
WISE*          FAIR      70  57  64 SW10      30.41S
ABINGDON*      PTSUNNY   78  55  44 W14G23    30.37S
$$

MDZ021>025-VAZ099-100-222100-
SOUTHERN MARYLAND AND THE DELMARVA PENINSULA

CITY           SKY/WX    TMP DP  RH WIND       PRES   REMARKS
PATUXENT RIVER DRIZZLE   50  50 100 NE8       30.42S FOG
BAY BRIDGE APT CLOUDY    48  43  81 E8        30.45R
LEONARDTOWN    CLOUDY    50  46  87 N5        30.43F
DOVER          CLOUDY    47  42  82 E15G22    30.45F
GEORGETOWN     CLOUDY    47  41  80 E9        30.45F
EASTON         PTSUNNY   50  43  76 SE9       30.47S
CAMBRIDGE      CLOUDY    48  45  87 VRB6G13   30.43S FOG
SALISBURY      CLOUDY    48  45  89 E9        30.42F
OCEAN CITY     CLOUDY    46  43  89 NE13G18   30.43F FOG
WALLOPS ISLAND CLOUDY    50  48  93 NE16      30.41F FOG
ACCOMACK*      CLOUDY    57  53  85 E6        30.40S
$$

NCZ012>017-030>032-222100-
NORTH CENTRAL AND EASTERN NORTH CAROLINA

CITY           SKY/WX    TMP DP  RH WIND       PRES   REMARKS
ROANOKE RAPIDS FAIR      77  63  61 SW14      30.37F
RALEIGH        FAIR      76  62  62 SW15      30.39F
ELIZABETH CITY PTSUNNY   78  66  66 W9        30.39F
AHOSKIE*       PTSUNNY   76  60  57 SW5       30.38F
EDENTON*       FAIR      79  66  64 W7        30.40F
CURRITUCK*     PTSUNNY   73  60  62 SW10G16   30.39F
KILL DEVIL HLS FAIR      74  62  64 CALM      30.39F
MANTEO         CLOUDY    69  60  73 S8        30.41F
CAPE HATTERAS  FAIR      73  65  75 SW6       30.44F
TARBORO*       NOT AVBL
GOLDSBORO      PTSUNNY   78  63  59 W13       30.39F
WASHINGTON     PTSUNNY   79  62  54 W6        30.40F
GREENVILLE     PTSUNNY   77  63  61 SW9       30.40F
NEW BERN       FAIR      80  59  48 SW7       30.41F
WILMINGTON     FAIR      80  59  48 S12       30.42F
$$

VAZ048-222100-
ELSEWHERE

CITY           SKY/WX    TMP DP  RH WIND       PRES   REMARKS
HARRISBURG PA  LGT RAIN  41  38  89 NE7       30.54S FOG
BALTIMORE      DRIZZLE   48  48 100 E7        30.47R FOG
ANNAPOLIS      CLOUDY    50  46  86 NE8       30.46R
ANDREWS AFB      N/A     50  45  81 NE8       30.45R
PHILADELPHIA   CLOUDY    43  36  76 NE16G24   30.51R
HENDERSON NC   PTSUNNY   72  59  63 SW14      30.38F
GREENSBORO     PTSUNNY   74  63  68 SW12      30.36F
ROCKY MOUNT    CLOUDY    75  63  66 SW12G18   30.40F
$$

VAZ100-222100-
MARINE

STATION/POSITION TIME  TEMP    WIND        PRES    WAVE   SWELL
                       AIR SEA DIR/SP/G            HT/PER HT/PER
                 (UTC) (F)     (DEG/KT/KT) (MB)    (FT/S) (FT/S)
BRANDYWINE LGT   1936   44      70/ 19/ 23 1031.4R
CAPE MAY NJ      1948   44 45   70/ 19/ 25 1030.4F
LEWES DE         1948   43 46   80/ 22/ 25 1030.6F
15NM E FENWICK I 1950   45 43   30/ 14/ 17 1030.2F   4/ 5   2/14
OCEAN-CITY-INLET 1948   44 40   30/ 10/ 13 1031.0F
WACHAPREAGUE VA  1948   49 56   60/ 11/ 14 1029.6F
THOMAS POINT MD  2000   46 42   80/  7/  7   N/A
GOOSES REEF MD   2000   46 43  110/  8/ 10 1029.8    1/ 2
COVE POINT MD    1948   47      40/  4/  5 1030.9S
SOLOMONS ISLAND  1948   48 44   70/  6/  6 1029.8F
BISHOPS HEAD MD  1948   50 52   40/  8/ 11 1030.1F
PINEY POINT MD   1948           90/  4/  6   N/A
POTOMAC MD       2000   47 42  280/  8/ 10 1029.2    0
CAMBRIDGE MD     1948   48 49              1031.3S
LEWISETTA VA     1948   49 51   50/  3/  4 1029.7F
RAPPAHANNOCK LGT 1948           60/  4/  9 1029.3F
YORK RVR RNG VA  1948   67     230/ 11/ 12 1028.7F
YORKTOWN VA      1948   74 47  220/ 10/ 14 1027.7F
DOMINION TERM VA 1948   63     210/ 10/ 10 1028.6F
KIPTOPEKE VA     1948      47  160/  7/  7   N/A
CAPE HENRY VA    1948   74     230/  7/ 13   N/A
WILLOUBY STN VA  1948   71     230/ 12/ 14 1028.3F
S CRANEY ISL VA  1948   74     220/  9/ 13 1028.3F
CAPE HENRY BUOY  2000      49                N/A     3/15   2/15
CAPE CHARLES BUO 1951      47                N/A     2/14   2/14
64NM E OF VA BCH 1950   54 51  210/  8/ 10 1030.3F   3/14   3/14
DUCK PIER NC     1948   63 45  110/  5/  5 1029.2F
44100 DUCK FRF   1945      49                N/A     3/17   2/17
44056 DUCK FRF   2000      50                N/A     3/14   2/14
OREGON INLET NC  1942   67 64  190/ 13/ 17 1029.9F
HATTERAS NC      1948   70 60  220/  7/ 11 1030.5F
DIAMOND SHLS NC  1950   74 76  200/ 16/ 19 1030.9F   4/16   3/16
CAPE LOOKOUT NC  2000          230/  8/  9 1031.2F
$$




USA.gov is the U.S. government's official web portal to all federal, state and local government web resources and services.